Regional Weather Roundup
Issued by NWS Upton, NY

Current Version | Previous Version | Text Only | Print | Product List | Glossary On
Versions: 1 2 3 4 5 6 7 8 9 10 11 12 13 14 15 16 17 18 19 20 21 22 23 24 25 26 27 28 29 30 31 32 33 34 35 36 37 38 39 40 41 42 43 44 45 46 47 48 49 50
000
ASUS41 KOKX 041018
RWROKX

REGIONAL WEATHER ROUNDUP
NATIONAL WEATHER SERVICE NEW YORK NY
600 AM EDT SAT JUL 04 2015

NOTE: "FAIR" INDICATES FEW OR NO CLOUDS BELOW 12,000 FEET WITH NO
SIGNIFICANT WEATHER AND/OR OBSTRUCTIONS TO VISIBILITY.

NYZ071-072-176-178-NJZ106-104-041100-
NEW YORK CITY METRO AREA


CITY           SKY/WX    TMP DP  RH WIND       PRES   REMARKS
CENTRAL PARK   CLOUDY    70  57  63 SE3       29.97F
LAGUARDIA APRT CLOUDY    70  59  68 E7        29.94F
KENNEDY INTL   CLOUDY    70  60  70 E5        29.95F
NEWARK/LIBERTY LGT RAIN  71  61  70 E5        29.94F
BRNX BOT. GARD   N/A     68  57  68 SE1       29.95F
TETERBORO      CLOUDY    70  61  73 CALM      29.93F
$$

NYZ177-179-078>081-041100-
LONG ISLAND NEW YORK

CITY           SKY/WX    TMP DP  RH WIND       PRES   REMARKS
FARMINGDALE    CLOUDY    68  60  75 E3        29.95F
ISLIP          CLOUDY    67  62  84 E6        29.94F
SHIRLEY        CLOUDY    64  62  93 CALM      29.97F
WESTHAMPTON    CLOUDY    61  60  97 CALM      29.99S
MONTAUK POINT    N/A     65  62  90 CALM      29.99F
$$

NYZ052-065-067-041100-
HUDSON VALLEY

CITY           SKY/WX    TMP DP  RH WIND       PRES   REMARKS
WHITE PLAINS   DRIZZLE   65  59  81 E3        29.96F
NEWBURGH       MOCLDY    66  63  88 CALM      29.97F
MONTGOMERY     CLOUDY    63  61  93 CALM      29.96S
POUGHKEEPSIE   CLOUDY    64  59  83 CALM      29.95S
ALBANY         CLOUDY    60  55  83 CALM      29.96F
$$

NJZ001-105-106-008-010-013-015-019>022-104-041100-
NEW JERSEY

CITY           SKY/WX    TMP DP  RH WIND       PRES   REMARKS
NEWARK/LIBERTY LGT RAIN  71  61  70 E5        29.94F
TETERBORO      CLOUDY    70  61  73 CALM      29.93F
CALDWELL       CLOUDY    67  63  87 CALM      29.95F
MORRISTOWN     CLOUDY    68  64  88 CALM      29.96R
SOMERVILLE     CLOUDY    66  63  90 CALM      29.92F FOG
SUSSEX         CLOUDY    64  60  87 W5        29.96S
ANDOVER          N/A     65  62  90 CALM      29.96S
TRENTON        CLOUDY    66  63  90 NE5       29.93S
MILLVILLE      MOCLDY    68  66  93 E5        29.89F
ATLANTIC CITY  CLOUDY    70  67  90 E7        29.90F
WRIGHTSTOWN    CLOUDY    65  65  99 NE5       29.91S
TOMS RIVER     CLOUDY    66  64  94 CALM      29.93S
BELMAR         CLOUDY    68  61  77 E3        29.94S
$$

PAZ047>061-062-071-041100-
EASTERN PENNSYLVANIA

CITY           SKY/WX    TMP DP  RH WIND       PRES   REMARKS
PHILADELPHIA   CLOUDY    70  66  87 NE6       29.92S
ALLENTOWN      LGT RAIN  68  64  88 NE5       29.94S
SCRANTON       LGT RAIN  63  59  87 E3        29.95F
$$

CTZ002-004>006-009-010-012-RIZ004-006-007-MAZ004-011-015-041100-
SOUTHERN NEW ENGLAND
 IN CT

CITY           SKY/WX    TMP DP  RH WIND       PRES   REMARKS
BRADLEY INTL   CLOUDY    59  55  87 N5        29.98S
HARTFORD       CLOUDY    63  60  90 SE7       29.97F
DANBURY        CLOUDY    63  57  81 CALM      29.98F
WTRBRY/OXFORD  CLOUDY    63  55  77 CALM      29.99F
BRIDGEPORT     CLOUDY    68  65  90 E7        29.96F
MERIDEN        CLOUDY    63  60  90 CALM      29.97F
NEW HAVEN      CLOUDY    64  61  90 CALM      29.97F
CHESTER        FAIR      63  61  94 CALM      29.99F
GROTON         CLOUDY    63  60  90 CALM      29.98S
WILLIMANTIC    CLOUDY    59  56  89 CALM      30.00F

 IN RI

CITY           SKY/WX    TMP DP  RH WIND       PRES   REMARKS
PROVIDENCE     CLOUDY    63  59  87 CALM      30.01R
BLOCK ISLAND   CLOUDY    63  59  88 NE3       29.99F
WESTERLY       CLOUDY    60  58  92 CALM      30.00S

 IN MA

CITY           SKY/WX    TMP DP  RH WIND       PRES   REMARKS
BOSTON         CLOUDY    64  58  80 SW5       30.01R
WORCESTER      CLOUDY    62  51  67 W7        30.01S
WESTFIELD      CLOUDY    57  53  86 CALM      29.99S
PROVINCETOWN   MOCLDY    59   3  10 CALM      30.01S
NANTUCKET      MOCLDY    61  58  90 E3        30.01S
$$

ANZ330-335-338-340-345-350-353-355-041100-
COASTAL MARINE OBSERVATIONS


STATION/POSITION TIME  SKY/WX   TEMP    WIND        PRES    VSBY  WAVE
                                AIR SEA DIR/SP/G                  HT/PER
                 (UTC)          (F)     (DEG/KT/KT) (MB)    (MI)  (FT/S)
NY HARB ENTRANCE 0950            69 69  110/  8/ 10 1013.4          3/ 8
4S FIRE IS       0903               70                N/A           3/ 8
20S FIRE ISLAND  0950            69 68  100/ 10/ 10 1013.7          3/ 8
GREAT SOUTH BAY  0900            69 74  120/  6/  8   N/A
23SW MTP         0950            67 66  100/  6/  8 1014.8          3/ 8
HUDSON CANYON    NOT AVBL
KINGS POINT      0900            68 66   60/  2/  2 1013.8
CENTRAL LI SOUND NOT AVBL
EASTERN LI SOUND 0900            64 63   60/  6/  6   N/A
ROBBINS REEF     0900            70     120/  3/  3 1013.0
$$


>>>>>>>>>>>>>>>>>>>>>>>>>>>> KEY <<<<<<<<<<<<<<<<<<<<<<<<<<<
>                                                          <
>     SKY/WX - SKY CONDITION/PRESENT WEATHER               <
>     TMP    - TEMPERATURE IN FAHRENHEIT                   <
>     DP     - DEWPOINT IN FAHRENHEIT                      <
>     RH     - RELATIVE HUMIDITY IN PERCENT                <
>     WIND   - DIRECTION AND SPEED IN MPH                  <
>     PRES   - MEAN SEA LEVEL PRESSURE IN INCHES OF HG     <
>     WCI    - WIND CHILL INDEX                            <
>     VSB    - VISIBILITY IN MILES                         <
>     HX     - HEAT INDEX                                  <
>     TC     - TEMPERATURE IN CELSIUS                      <
>     VRB    - VARIABLE WIND DIRECTION                     <
>                                                          <
>>>>>>>>>>>>>>>>>>>>>>>>>>>> KEY <<<<<<<<<<<<<<<<<<<<<<<<<<<





USA.gov is the U.S. government's official web portal to all federal, state and local government web resources and services.